Weather History for KMIE - September, 2013

Change the Weather History Date:

Monday, September 30, 2013

  Actual Average Record
Temperature  
Mean Temperature 66 °F 59 °F  
Max Temperature 75 °F 71 °F 88 °F (1971)
Min Temperature 57 °F 48 °F 32 °F (1963)
Degree Days  
Heating Degree Days 0 7  
Month to date heating degree days 83 92  
Since 1 July heating degree days 109 101  
Cooling Degree Days 1 2  
Month to date cooling degree days 124 105  
Year to date cooling degree days 939 939  
Growing Degree Days 15 (Base 50)    
Moisture  
Dew Point 58 °F    
Average Humidity 77    
Maximum Humidity 100    
Minimum Humidity 53    
Precipitation  
Precipitation 0.00 in 0.09 in 0.32 in (1981)
Month to date precipitation 3.79 2.96  
Year to date precipitation 28.67 30.87  
Sea Level Pressure  
Sea Level Pressure 30.00 in    
Wind  
Wind Speed 4 mph (SW)    
Max Wind Speed 15 mph    
Max Gust Speed 18 mph    
Visibility 5 miles    
Events Fog    
T = Trace of Precipitation, MM = Missing Value Source: NWS Daily Summary

Daily Weather History Graph

Daily Weather History Graph

Search for Another Location

Airport or City:

Trip Planner

Search our weather history database for the weather conditions in past years. The results will help you decide how hot, cold, wet, or windy it might be!

Date:

Astronomy

Sep. 30, 2013 Rise Set
Actual Time 7:37 AM EDT 7:25 PM EDT
Civil Twilight 7:10 AM EDT 7:52 PM EDT
Nautical Twilight 6:38 AM EDT 8:23 PM EDT
Astronomical Twilight 6:06 AM EDT 8:55 PM EDT
Moon 3:13 AM EDT 4:55 PM EDT
Length of Visible Light 12h 41m
Length of Day
11h 47m
Waning Crescent, 19% of the Moon is Illuminated
Sep 30
Waning Crescent
Oct 4
New
Oct 11
First Quarter
Oct 18
Full
Oct 26
Last Quarter

Hourly Weather History & Observations

Time (EDT) Temp. Dew Point Humidity Pressure Visibility Wind Dir Wind Speed Gust Speed Precip Events Conditions
12:13 AM 57.2 °F 55.4 °F 94% 30.00 in 1.2 mi Calm Calm - N/A   Scattered Clouds
12:20 AM 57.2 °F 55.4 °F 94% 30.00 in 0.2 mi Calm Calm - N/A Fog Fog
12:29 AM 57.2 °F 57.2 °F 100% 30.00 in 0.5 mi Calm Calm - N/A Fog Fog
12:48 AM 57.2 °F 57.2 °F 100% 30.00 in 1.8 mi Calm Calm - N/A   Overcast
12:53 AM 57.9 °F 57.0 °F 97% 29.99 in 1.0 mi Calm Calm - N/A   Overcast
12:59 AM 57.2 °F 57.2 °F 100% 30.00 in 0.5 mi Calm Calm - N/A Fog Fog
1:13 AM 57.2 °F 57.2 °F 100% 30.00 in 2.5 mi Calm Calm - N/A   Overcast
1:20 AM 57.2 °F 57.2 °F 100% 30.00 in 5.0 mi Calm Calm - N/A   Overcast
1:53 AM 57.9 °F 57.0 °F 97% 29.99 in 3.0 mi Calm Calm - N/A   Overcast
2:39 AM 57.2 °F 57.2 °F 100% 30.01 in 2.0 mi Calm Calm - N/A   Overcast
2:50 AM 57.2 °F 57.2 °F 100% 30.00 in 1.2 mi Calm Calm - N/A   Overcast
2:53 AM 57.9 °F 57.0 °F 97% 29.99 in 1.0 mi Calm Calm - N/A   Mist
3:12 AM 59.0 °F 57.2 °F 94% 30.00 in 0.5 mi Calm Calm - N/A Fog Fog
3:23 AM 59.0 °F 57.2 °F 94% 30.00 in 0.2 mi Calm Calm - N/A Fog Fog
3:53 AM 57.9 °F 57.0 °F 97% 29.98 in 0.2 mi Calm Calm - N/A Fog Fog
4:53 AM 57.9 °F 57.0 °F 97% 29.99 in 0.2 mi NNW 3.5 mph - N/A Fog Fog
5:53 AM 57.0 °F 57.0 °F 100% 29.99 in 0.2 mi Calm Calm - N/A Fog Fog
6:10 AM 57.2 °F 57.2 °F 100% 30.00 in 0.5 mi Calm Calm - N/A Fog Fog
6:18 AM 57.2 °F 57.2 °F 100% 30.00 in 1.2 mi Calm Calm - N/A   Overcast
6:27 AM 57.2 °F 57.2 °F 100% 30.00 in 2.5 mi Calm Calm - N/A   Overcast
6:36 AM 57.2 °F 57.2 °F 100% 30.00 in 7.0 mi Calm Calm - N/A   Overcast
6:53 AM 57.9 °F 57.0 °F 97% 29.99 in 5.0 mi Calm Calm - N/A   Overcast
7:42 AM 57.2 °F 57.2 °F 100% 30.01 in 1.8 mi Calm Calm - N/A   Overcast
7:51 AM 57.2 °F 57.2 °F 100% 30.02 in 0.2 mi Calm Calm - N/A Fog Fog
7:53 AM 57.9 °F 57.0 °F 97% 30.00 in 0.2 mi Calm Calm - N/A Fog Fog
8:53 AM 59.0 °F 57.9 °F 96% 30.01 in 0.8 mi Calm Calm - N/A   Overcast
8:57 AM 59.0 °F 57.2 °F 94% 30.03 in 2.0 mi Calm Calm - N/A   Overcast
9:05 AM 59.0 °F 57.2 °F 94% 30.03 in 4.0 mi Calm Calm - N/A   Overcast
9:18 AM 59.0 °F 57.2 °F 94% 30.03 in 4.0 mi Calm Calm - N/A   Overcast
9:26 AM 59.0 °F 59.0 °F 100% 30.03 in 2.5 mi Calm Calm - N/A   Overcast
9:37 AM 59.0 °F 59.0 °F 100% 30.03 in 4.0 mi Calm Calm - N/A   Mostly Cloudy
9:53 AM 60.1 °F 59.0 °F 96% 30.01 in 5.0 mi Calm Calm - N/A   Mostly Cloudy
10:04 AM 60.8 °F 60.8 °F 100% 30.03 in 8.0 mi Calm Calm - N/A   Mostly Cloudy
10:53 AM 63.0 °F 59.0 °F 87% 30.01 in 10.0 mi SW 5.8 mph - N/A   Mostly Cloudy
11:05 AM 64.4 °F 60.8 °F 88% 30.02 in 10.0 mi Calm Calm - N/A   Mostly Cloudy
11:12 AM 64.4 °F 60.8 °F 88% 30.03 in 10.0 mi SW 4.6 mph - N/A   Mostly Cloudy
11:19 AM 64.4 °F 60.8 °F 88% 30.02 in 10.0 mi SSW 4.6 mph - N/A   Mostly Cloudy
11:53 AM 66.0 °F 59.0 °F 78% 30.00 in 10.0 mi WSW 5.8 mph - N/A   Scattered Clouds
12:53 PM 66.9 °F 59.0 °F 76% 29.99 in 10.0 mi Calm Calm - N/A   Mostly Cloudy
1:53 PM 71.1 °F 59.0 °F 66% 29.97 in 10.0 mi Variable 3.5 mph - N/A   Partly Cloudy
2:53 PM 73.9 °F 57.0 °F 55% 29.95 in 10.0 mi SW 10.4 mph 18.4 mph N/A   Partly Cloudy
3:53 PM 73.9 °F 55.0 °F 52% 29.93 in 10.0 mi WSW 10.4 mph - N/A   Partly Cloudy
4:53 PM 73.9 °F 55.9 °F 53% 29.92 in 10.0 mi SW 12.7 mph 18.4 mph N/A   Scattered Clouds
5:53 PM 72.0 °F 57.0 °F 59% 29.93 in 10.0 mi WSW 6.9 mph - N/A   Partly Cloudy
6:53 PM 70.0 °F 57.9 °F 65% 29.95 in 10.0 mi SSW 9.2 mph - N/A   Scattered Clouds
7:53 PM 66.9 °F 59.0 °F 76% 29.95 in 10.0 mi SSW 6.9 mph - N/A   Clear
8:53 PM 64.9 °F 59.0 °F 81% 29.97 in 10.0 mi South 4.6 mph - N/A   Clear
9:53 PM 63.0 °F 60.1 °F 90% 29.98 in 8.0 mi South 6.9 mph - N/A   Clear
10:53 PM 63.0 °F 60.1 °F 90% 29.99 in 6.0 mi SSW 5.8 mph - N/A   Clear
11:53 PM 62.1 °F 59.0 °F 90% 29.99 in 5.0 mi SSW 5.8 mph - N/A   Clear